Tracking 18980 objects as of 19-Feb-2018
HD Live streaming from Space Station
objects crossing your sky now

SECOR 3

Track SECOR 3 now!
10-day predictions
SECOR 3 is classified as:


NORAD ID: 1208
Int'l Code: 1965-016E
Perigee: 903.2 km
Apogee: 929.5 km
Inclination: 70.1 °
Period: 103.2 minutes
Semi major axis: 7287 km
RCS: 0.2205 m2 (medium)
Launch date: March 9, 1965
Source: United States (US)
Launch site: AIR FORCE WESTERN TEST RANGE (AFWTR)
aabbcc
Your satellite tracking list
Your tracking list is empty




NASA's NSSDC Master Catalog

Two Line Element Set (TLE):
1  1208U 65016E   18049.57646584 -.00000012 +00000-0 +29205-4 0  9992
2  1208 070.0795 176.5003 0018021 127.9517 321.1212 13.95554297694941
Source of the keplerian elements: AFSPC